TimeCST,TemperatureF,Dew PointF,Humidity,Sea Level PressureIn,VisibilityMPH,Wind Direction,Wind SpeedMPH,Gust SpeedMPH,PrecipitationIn,Events,Conditions,WindDirDegrees,DateUTC
12:54 AM,12.0,7.0,80,30.34,10.0,Calm,Calm,-,N/A,,Clear,0,2013-12-11 06:54:00
1:54 AM,14.0,9.0,80,30.33,10.0,SE,4.6,-,N/A,,Clear,140,2013-12-11 07:54:00
2:54 AM,18.0,12.0,78,30.33,10.0,Calm,Calm,-,N/A,,Clear,0,2013-12-11 08:54:00
3:54 AM,19.0,12.9,77,30.31,10.0,South,4.6,-,N/A,,Clear,180,2013-12-11 09:54:00
4:54 AM,19.9,14.0,78,30.31,10.0,SSW,8.1,-,N/A,,Clear,210,2013-12-11 10:54:00
5:54 AM,21.0,15.1,78,30.31,10.0,SW,8.1,-,N/A,,Clear,220,2013-12-11 11:54:00
6:54 AM,23.0,15.1,72,30.32,10.0,SW,11.5,-,N/A,,Clear,220,2013-12-11 12:54:00
7:54 AM,24.1,15.1,69,30.33,10.0,WSW,9.2,-,N/A,,Clear,240,2013-12-11 13:54:00
8:54 AM,26.1,16.0,66,30.37,10.0,West,9.2,-,N/A,,Mostly Cloudy,270,2013-12-11 14:54:00
9:54 AM,28.0,17.1,63,30.41,10.0,NW,13.8,24.2,N/A,,Overcast,320,2013-12-11 15:54:00
10:54 AM,27.0,17.1,66,30.45,10.0,North,13.8,23.0,N/A,,Mostly Cloudy,350,2013-12-11 16:54:00
11:54 AM,25.0,16.0,69,30.46,10.0,NNW,19.6,25.3,N/A,,Overcast,340,2013-12-11 17:54:00
12:54 PM,24.1,15.1,69,30.47,9.0,NNW,16.1,24.2,N/A,,Overcast,330,2013-12-11 18:54:00
1:54 PM,23.0,14.0,68,30.49,7.0,NW,13.8,21.9,0.00,Snow,Light Snow,320,2013-12-11 19:54:00
2:54 PM,23.0,10.0,58,30.50,10.0,NW,12.7,-,0.00,,Partly Cloudy,320,2013-12-11 20:54:00
3:54 PM,21.9,5.0,48,30.53,10.0,NW,16.1,-,N/A,,Clear,320,2013-12-11 21:54:00
4:54 PM,18.0,3.9,54,30.56,10.0,NW,10.4,-,N/A,,Clear,320,2013-12-11 22:54:00
5:54 PM,15.1,-2.0,47,30.60,10.0,NW,11.5,20.7,N/A,,Clear,320,2013-12-11 23:54:00
6:54 PM,12.9,-2.9,49,30.61,10.0,NW,12.7,19.6,N/A,,Clear,320,2013-12-12 00:54:00
7:54 PM,10.0,-2.9,56,30.63,10.0,NW,12.7,20.7,N/A,,Clear,310,2013-12-12 01:54:00
8:54 PM,8.1,-2.9,61,30.64,10.0,NW,11.5,-,N/A,,Clear,310,2013-12-12 02:54:00
9:54 PM,7.0,-4.0,61,30.65,10.0,NW,10.4,-,N/A,,Clear,320,2013-12-12 03:54:00
10:54 PM,6.1,-4.0,63,30.65,10.0,NW,9.2,-,N/A,,Clear,310,2013-12-12 04:54:00
11:54 PM,6.1,-2.9,67,30.66,10.0,WNW,9.2,-,N/A,,Clear,300,2013-12-12 05:54:00